Estación Meteorológica Peña el Pijo (Robertgarden) [ 09/29/20 11:44:02 CEST ]

Fecha Hora Presion(HPa) Temp (°C) Humedad % Rocio (°C) Viento ( m/s) Direccion Lluvia 1Hora(mm) Lluvia 24H(mm) LLuvia Total(mm)
2020-Feb-20 01:09:21 1015.800 - - - - N     39.88
2020-Feb-20 02:09:36 1015.200 - - - - N     39.88
2020-Feb-20 03:09:44 1014.600 - - - - N     39.88
2020-Feb-20 04:09:14 1013.900 - - - - N     39.88
2020-Feb-20 05:09:49 1013.600 - - - - N     39.88
2020-Feb-20 06:09:34 1013.300 - - - - N     39.88
2020-Feb-20 07:09:25 1013.200 - - - - N     39.88
2020-Feb-20 08:09:30 1013.000 - - - - N     39.88
2020-Feb-20 09:09:21 1013.300 - - - - N     39.88
2020-Feb-20 10:09:02 1013.300 - - - - N     39.88
2020-Feb-20 11:09:11 1012.900 - - - - N     39.88
2020-Feb-20 12:09:16 1012.300 - - - - N     39.88
2020-Feb-20 13:08:57 1011.600 - - - - N     39.88
2020-Feb-20 14:09:23 1011.200 - - - - N     39.88
2020-Feb-20 15:09:04 1010.800 - - - - N     39.88
2020-Feb-20 16:09:03 1011.100 - - - - N     39.88
2020-Feb-20 17:09:01 1011.400 - - - - N     39.88
2020-Feb-20 18:09:10 1012.000 - - - - N     39.88
2020-Feb-20 19:09:08 1012.700 - - - - N     39.88
2020-Feb-20 20:09:21 1013.700 - - - - N     39.88
2020-Feb-20 21:09:25 1014.100 - - - - N     39.88
2020-Feb-20 22:09:16 1014.700 - - - - N     39.88
2020-Feb-20 23:09:02 1015.100 - - - - N     39.88

Temperatura Máxima:    Temperatura Mínima:
Presión Máxima:1015.800 Hpa    Presión Mínima:1010.800 Hpa


Volver